Year,Month,Day,Hour,Minute,Value (Times are PST for temperature in C)
2013,03,16,00,00,5.70
2013,03,16,00,01,5.70
2013,03,16,00,02,5.70
2013,03,16,00,03,5.70
2013,03,16,00,04,5.70
2013,03,16,00,05,5.70
2013,03,16,00,06,5.70
2013,03,16,00,07,5.70
2013,03,16,00,08,5.70
2013,03,16,00,09,5.70
2013,03,16,00,10,5.70
2013,03,16,00,11,5.70
2013,03,16,00,12,5.60
2013,03,16,00,13,5.60
2013,03,16,00,14,5.60
2013,03,16,00,15,5.60
2013,03,16,00,16,5.60
2013,03,16,00,17,5.60
2013,03,16,00,18,5.60
2013,03,16,00,19,5.60
2013,03,16,00,20,5.60
2013,03,16,00,21,5.60
2013,03,16,00,22,5.60
2013,03,16,00,23,5.60
2013,03,16,00,24,5.60
2013,03,16,00,25,5.60
2013,03,16,00,26,5.60
2013,03,16,00,27,5.60
2013,03,16,00,28,5.60
2013,03,16,00,29,5.60
2013,03,16,00,30,5.60
2013,03,16,00,31,5.60
2013,03,16,00,32,5.50
2013,03,16,00,33,5.50
2013,03,16,00,34,5.50
2013,03,16,00,35,5.50
2013,03,16,00,36,5.40
2013,03,16,00,37,5.40
2013,03,16,00,38,5.40
2013,03,16,00,39,5.40
2013,03,16,00,40,5.30
2013,03,16,00,41,5.30
2013,03,16,00,42,5.30
2013,03,16,00,43,5.40
2013,03,16,00,44,5.40
2013,03,16,00,45,5.40
2013,03,16,00,46,5.40
2013,03,16,00,47,5.40
2013,03,16,00,48,5.40
2013,03,16,00,49,5.40
2013,03,16,00,50,5.40
2013,03,16,00,51,5.40
2013,03,16,00,52,5.40
2013,03,16,00,53,5.40
2013,03,16,00,54,5.40
2013,03,16,00,55,5.40
2013,03,16,00,56,5.40
2013,03,16,00,57,5.40
2013,03,16,00,58,5.40
2013,03,16,00,59,5.30
2013,03,16,01,00,5.40
2013,03,16,01,01,5.40
2013,03,16,01,02,5.40
2013,03,16,01,03,5.40
2013,03,16,01,04,5.40
2013,03,16,01,05,5.40
2013,03,16,01,06,5.50
2013,03,16,01,07,5.50
2013,03,16,01,08,5.60
2013,03,16,01,09,5.60
2013,03,16,01,10,5.60
2013,03,16,01,11,5.60
2013,03,16,01,12,5.50
2013,03,16,01,13,5.50
2013,03,16,01,14,5.40
2013,03,16,01,15,5.30
2013,03,16,01,16,5.30
2013,03,16,01,17,5.20
2013,03,16,01,18,5.20
2013,03,16,01,19,5.20
2013,03,16,01,20,5.20
2013,03,16,01,21,5.20
2013,03,16,01,22,5.20
2013,03,16,01,23,5.20
2013,03,16,01,24,5.20
2013,03,16,01,25,5.20
2013,03,16,01,26,5.20
2013,03,16,01,27,5.20
2013,03,16,01,28,5.20
2013,03,16,01,29,5.20
2013,03,16,01,30,5.20
2013,03,16,01,31,5.20
2013,03,16,01,32,5.20
2013,03,16,01,33,5.20
2013,03,16,01,34,5.20
2013,03,16,01,35,5.20
2013,03,16,01,36,5.20
2013,03,16,01,37,5.10
2013,03,16,01,38,5.10
2013,03,16,01,39,5.10
2013,03,16,01,40,5.10
2013,03,16,01,41,5.10
2013,03,16,01,42,5.10
2013,03,16,01,43,5.00
2013,03,16,01,44,5.00
2013,03,16,01,45,5.00
2013,03,16,01,46,5.00
2013,03,16,01,47,5.00
2013,03,16,01,48,4.90
2013,03,16,01,49,4.90
2013,03,16,01,50,4.90
2013,03,16,01,51,4.90
2013,03,16,01,52,4.80
2013,03,16,01,53,4.80
2013,03,16,01,54,4.80
2013,03,16,01,55,4.80
2013,03,16,01,56,4.80
2013,03,16,01,57,4.70
2013,03,16,01,58,4.70
2013,03,16,01,59,4.70
2013,03,16,02,00,4.70
2013,03,16,02,01,4.70
2013,03,16,02,02,4.70
2013,03,16,02,03,4.70
2013,03,16,02,04,4.80
2013,03,16,02,05,4.80
2013,03,16,02,06,4.90
2013,03,16,02,07,4.90
2013,03,16,02,08,4.90
2013,03,16,02,09,5.00
2013,03,16,02,10,5.10
2013,03,16,02,11,5.10
2013,03,16,02,12,5.10
2013,03,16,02,13,5.10
2013,03,16,02,14,5.20
2013,03,16,02,15,5.20
2013,03,16,02,16,5.30
2013,03,16,02,17,5.30
2013,03,16,02,18,5.40
2013,03,16,02,19,5.40
2013,03,16,02,20,5.40
2013,03,16,02,21,5.40
2013,03,16,02,22,5.40
2013,03,16,02,23,5.30
2013,03,16,02,24,5.30
2013,03,16,02,25,5.30
2013,03,16,02,26,5.30
2013,03,16,02,27,5.20
2013,03,16,02,28,5.20
2013,03,16,02,29,5.20
2013,03,16,02,30,5.20
2013,03,16,02,31,5.20
2013,03,16,02,32,5.20
2013,03,16,02,33,5.20
2013,03,16,02,34,5.30
2013,03,16,02,35,5.20
2013,03,16,02,36,5.20
2013,03,16,02,37,5.20
2013,03,16,02,38,5.20
2013,03,16,02,39,5.20
2013,03,16,02,40,5.20
2013,03,16,02,41,5.20
2013,03,16,02,42,5.10
2013,03,16,02,43,5.10
2013,03,16,02,44,5.10
2013,03,16,02,45,5.10
2013,03,16,02,46,5.10
2013,03,16,02,47,5.10
2013,03,16,02,48,5.10
2013,03,16,02,49,5.10
2013,03,16,02,50,5.10
2013,03,16,02,51,5.10
2013,03,16,02,52,5.10
2013,03,16,02,53,5.20
2013,03,16,02,54,5.30
2013,03,16,02,55,5.30
2013,03,16,02,56,5.40
2013,03,16,02,57,5.40
2013,03,16,02,58,5.40
2013,03,16,02,59,5.40
2013,03,16,03,00,5.40
2013,03,16,03,01,5.40
2013,03,16,03,02,5.40
2013,03,16,03,03,5.50
2013,03,16,03,04,5.50
2013,03,16,03,05,5.60
2013,03,16,03,06,5.60
2013,03,16,03,07,5.70
2013,03,16,03,08,5.80
2013,03,16,03,09,5.80
2013,03,16,03,10,5.80
2013,03,16,03,11,5.80
2013,03,16,03,12,5.80
2013,03,16,03,13,5.80
2013,03,16,03,14,5.90
2013,03,16,03,15,5.90
2013,03,16,03,16,5.90
2013,03,16,03,17,5.90
2013,03,16,03,18,5.90
2013,03,16,03,19,6.00
2013,03,16,03,20,6.00
2013,03,16,03,21,6.00
2013,03,16,03,22,6.10
2013,03,16,03,23,6.10
2013,03,16,03,24,6.10
2013,03,16,03,25,6.20
2013,03,16,03,26,6.20
2013,03,16,03,27,6.20
2013,03,16,03,28,6.20
2013,03,16,03,29,6.20
2013,03,16,03,30,6.10
2013,03,16,03,31,6.10
2013,03,16,03,32,6.10
2013,03,16,03,33,6.10
2013,03,16,03,34,6.10
2013,03,16,03,35,6.10
2013,03,16,03,36,6.10
2013,03,16,03,37,6.20
2013,03,16,03,38,6.20
2013,03,16,03,39,6.20
2013,03,16,03,40,6.20
2013,03,16,03,41,6.10
2013,03,16,03,42,6.10
2013,03,16,03,43,6.10
2013,03,16,03,44,6.10
2013,03,16,03,45,6.10
2013,03,16,03,46,6.00
2013,03,16,03,47,6.00
2013,03,16,03,48,5.90
2013,03,16,03,49,5.90
2013,03,16,03,50,5.90
2013,03,16,03,51,5.80
2013,03,16,03,52,5.80
2013,03,16,03,53,5.80
2013,03,16,03,54,5.80
2013,03,16,03,55,5.80
2013,03,16,03,56,5.80
2013,03,16,03,57,5.80
2013,03,16,03,58,5.80
2013,03,16,03,59,5.80
2013,03,16,04,00,5.80
2013,03,16,04,01,5.80
2013,03,16,04,02,5.80
2013,03,16,04,03,5.80
2013,03,16,04,04,5.80
2013,03,16,04,05,5.80
2013,03,16,04,06,5.80
2013,03,16,04,07,5.70
2013,03,16,04,08,5.70
2013,03,16,04,09,5.70
2013,03,16,04,10,5.70
2013,03,16,04,11,5.70
2013,03,16,04,12,5.80
2013,03,16,04,13,5.80
2013,03,16,04,14,5.80
2013,03,16,04,15,5.80
2013,03,16,04,16,5.90
2013,03,16,04,17,5.90
2013,03,16,04,18,5.90
2013,03,16,04,19,6.00
2013,03,16,04,20,6.00
2013,03,16,04,21,6.00
2013,03,16,04,22,6.00
2013,03,16,04,23,6.00
2013,03,16,04,24,6.00
2013,03,16,04,25,6.00
2013,03,16,04,26,5.90
2013,03,16,04,27,5.90
2013,03,16,04,28,5.90
2013,03,16,04,29,5.90
2013,03,16,04,30,5.80
2013,03,16,04,31,5.80
2013,03,16,04,32,5.80
2013,03,16,04,33,5.80
2013,03,16,04,34,5.80
2013,03,16,04,35,5.80
2013,03,16,04,36,5.80
2013,03,16,04,37,5.70
2013,03,16,04,38,5.70
2013,03,16,04,39,5.70
2013,03,16,04,40,5.70
2013,03,16,04,41,5.70
2013,03,16,04,42,5.80
2013,03,16,04,43,5.80
2013,03,16,04,44,5.80
2013,03,16,04,45,5.90
2013,03,16,04,46,5.90
2013,03,16,04,47,5.90
2013,03,16,04,48,5.90
2013,03,16,04,49,5.90
2013,03,16,04,50,5.90
2013,03,16,04,51,5.80
2013,03,16,04,52,5.80
2013,03,16,04,53,5.80
2013,03,16,04,54,5.80
2013,03,16,04,55,5.80
2013,03,16,04,56,5.70
2013,03,16,04,57,5.70
2013,03,16,04,58,5.70
2013,03,16,04,59,5.70
2013,03,16,05,00,5.60
2013,03,16,05,01,5.60
2013,03,16,05,02,5.60
2013,03,16,05,03,5.60
2013,03,16,05,04,5.60
2013,03,16,05,05,5.60
2013,03,16,05,06,5.60
2013,03,16,05,07,5.50
2013,03,16,05,08,5.50
2013,03,16,05,09,5.50
2013,03,16,05,10,5.50
2013,03,16,05,11,5.50
2013,03,16,05,12,5.50
2013,03,16,05,13,5.40
2013,03,16,05,14,5.40
2013,03,16,05,15,5.40
2013,03,16,05,16,5.40
2013,03,16,05,17,5.40
2013,03,16,05,18,5.40
2013,03,16,05,19,5.50
2013,03,16,05,20,5.50
2013,03,16,05,21,5.60
2013,03,16,05,22,5.70
2013,03,16,05,23,5.70
2013,03,16,05,24,5.70
2013,03,16,05,25,5.70
2013,03,16,05,26,5.70
2013,03,16,05,27,5.70
2013,03,16,05,28,5.80
2013,03,16,05,29,5.80
2013,03,16,05,30,5.80
2013,03,16,05,31,5.80
2013,03,16,05,32,5.80
2013,03,16,05,33,5.80
2013,03,16,05,34,5.80
2013,03,16,05,35,5.80
2013,03,16,05,36,5.90
2013,03,16,05,37,6.00
2013,03,16,05,38,6.10
2013,03,16,05,39,6.10
2013,03,16,05,40,6.20
2013,03,16,05,41,6.20
2013,03,16,05,42,6.20
2013,03,16,05,43,6.20
2013,03,16,05,44,6.20
2013,03,16,05,45,6.20
2013,03,16,05,46,6.20
2013,03,16,05,47,6.20
2013,03,16,05,48,6.20
2013,03,16,05,49,6.10
2013,03,16,05,50,6.10
2013,03,16,05,51,6.10
2013,03,16,05,52,6.00
2013,03,16,05,53,6.00
2013,03,16,05,54,6.00
2013,03,16,05,55,6.00
2013,03,16,05,56,6.00
2013,03,16,05,57,6.00
2013,03,16,05,58,5.90
2013,03,16,05,59,5.90
2013,03,16,06,00,5.90
2013,03,16,06,01,5.90
2013,03,16,06,02,5.90
2013,03,16,06,03,5.80
2013,03,16,06,04,5.80
2013,03,16,06,05,5.80
2013,03,16,06,06,5.80
2013,03,16,06,07,5.80
2013,03,16,06,08,5.80
2013,03,16,06,09,5.80
2013,03,16,06,10,5.80
2013,03,16,06,11,5.80
2013,03,16,06,12,5.90
2013,03,16,06,13,5.90
2013,03,16,06,14,5.90
2013,03,16,06,15,5.90
2013,03,16,06,16,5.90
2013,03,16,06,17,5.90
2013,03,16,06,18,5.90
2013,03,16,06,19,5.90
2013,03,16,06,20,5.90
2013,03,16,06,21,6.00
2013,03,16,06,22,6.00
2013,03,16,06,23,6.00
2013,03,16,06,24,6.00
2013,03,16,06,25,6.00
2013,03,16,06,26,6.10
2013,03,16,06,27,6.10
2013,03,16,06,28,6.00
2013,03,16,06,29,6.10
2013,03,16,06,30,6.10
2013,03,16,06,31,6.10
2013,03,16,06,32,6.10
2013,03,16,06,33,6.10
2013,03,16,06,34,6.10
2013,03,16,06,35,6.10
2013,03,16,06,36,6.10
2013,03,16,06,37,6.10
2013,03,16,06,38,6.10
2013,03,16,06,39,6.10
2013,03,16,06,40,6.10
2013,03,16,06,41,6.10
2013,03,16,06,42,6.10
2013,03,16,06,43,6.00
2013,03,16,06,44,6.00
2013,03,16,06,45,6.00
2013,03,16,06,46,6.00
2013,03,16,06,47,6.00
2013,03,16,06,48,6.00
2013,03,16,06,49,6.00
2013,03,16,06,50,6.10
2013,03,16,06,51,6.10
2013,03,16,06,52,6.10
2013,03,16,06,53,6.10
2013,03,16,06,54,6.10
2013,03,16,06,55,6.10
2013,03,16,06,56,6.10
2013,03,16,06,57,6.10
2013,03,16,06,58,6.10
2013,03,16,06,59,6.20
2013,03,16,07,00,6.20
2013,03,16,07,01,6.30
2013,03,16,07,02,6.30
2013,03,16,07,03,6.30
2013,03,16,07,04,6.30
2013,03,16,07,05,6.30
2013,03,16,07,06,6.30
2013,03,16,07,07,6.40
2013,03,16,07,08,6.40
2013,03,16,07,09,6.40
2013,03,16,07,10,6.40
2013,03,16,07,11,6.50
2013,03,16,07,12,6.50
2013,03,16,07,13,6.50
2013,03,16,07,14,6.50
2013,03,16,07,15,6.50
2013,03,16,07,16,6.50
2013,03,16,07,17,6.60
2013,03,16,07,18,6.60
2013,03,16,07,19,6.60
2013,03,16,07,20,6.60
2013,03,16,07,21,6.60
2013,03,16,07,22,6.60
2013,03,16,07,23,6.60
2013,03,16,07,24,6.60
2013,03,16,07,25,6.60
2013,03,16,07,26,6.60
2013,03,16,07,27,6.60
2013,03,16,07,28,6.60
2013,03,16,07,29,6.60
2013,03,16,07,30,6.60
2013,03,16,07,31,6.60
2013,03,16,07,32,6.60
2013,03,16,07,33,6.60
2013,03,16,07,34,6.60
2013,03,16,07,35,6.60
2013,03,16,07,36,6.60
2013,03,16,07,37,6.60
2013,03,16,07,38,6.60
2013,03,16,07,39,6.60
2013,03,16,07,40,6.60
2013,03,16,07,41,6.60
2013,03,16,07,42,6.60
2013,03,16,07,43,6.60
2013,03,16,07,44,6.60
2013,03,16,07,45,6.60
2013,03,16,07,46,6.60
2013,03,16,07,47,6.60
2013,03,16,07,48,6.60
2013,03,16,07,49,6.60
2013,03,16,07,50,6.60
2013,03,16,07,51,6.60
2013,03,16,07,52,6.70
2013,03,16,07,53,6.70
2013,03,16,07,54,6.70
2013,03,16,07,55,6.70
2013,03,16,07,56,6.60
2013,03,16,07,57,6.60
2013,03,16,07,58,6.60
2013,03,16,07,59,6.60
2013,03,16,08,00,6.60
2013,03,16,08,01,6.60
2013,03,16,08,02,6.60
2013,03,16,08,03,6.60
2013,03,16,08,04,6.70
2013,03,16,08,05,6.70
2013,03,16,08,06,6.60
2013,03,16,08,07,6.60
2013,03,16,08,08,6.60
2013,03,16,08,09,6.60
2013,03,16,08,10,6.60
2013,03,16,08,11,6.60
2013,03,16,08,12,6.60
2013,03,16,08,13,6.60
2013,03,16,08,14,6.60
2013,03,16,08,15,6.60
2013,03,16,08,16,6.60
2013,03,16,08,17,6.60
2013,03,16,08,18,6.60
2013,03,16,08,19,6.60
2013,03,16,08,20,6.70
2013,03,16,08,21,6.70
2013,03,16,08,22,6.70
2013,03,16,08,23,6.70
2013,03,16,08,24,6.70
2013,03,16,08,25,6.70
2013,03,16,08,26,6.70
2013,03,16,08,27,6.70
2013,03,16,08,28,6.70
2013,03,16,08,29,6.70
2013,03,16,08,30,6.70
2013,03,16,08,31,6.70
2013,03,16,08,32,6.70
2013,03,16,08,33,6.70
2013,03,16,08,34,6.70
2013,03,16,08,35,6.70
2013,03,16,08,36,6.70
2013,03,16,08,37,6.70
2013,03,16,08,38,6.70
2013,03,16,08,39,6.70
2013,03,16,08,40,6.70
2013,03,16,08,41,6.70
2013,03,16,08,42,6.70
2013,03,16,08,43,6.70
2013,03,16,08,44,6.70
2013,03,16,08,45,6.70
2013,03,16,08,46,6.70
2013,03,16,08,47,6.70
2013,03,16,08,48,6.70
2013,03,16,08,49,6.70
2013,03,16,08,50,6.70
2013,03,16,08,51,6.70
2013,03,16,08,52,6.70
2013,03,16,08,53,6.70
2013,03,16,08,54,6.70
2013,03,16,08,55,6.70
2013,03,16,08,56,6.70
2013,03,16,08,57,6.70
2013,03,16,08,58,6.70
2013,03,16,08,59,6.70
2013,03,16,09,00,6.70
2013,03,16,09,01,6.70
2013,03,16,09,02,6.70
2013,03,16,09,03,6.70
2013,03,16,09,04,6.70
2013,03,16,09,05,6.70
2013,03,16,09,06,6.70
2013,03,16,09,07,6.70
2013,03,16,09,08,6.70
2013,03,16,09,09,6.80
2013,03,16,09,10,6.70
2013,03,16,09,11,6.80
2013,03,16,09,12,6.80
2013,03,16,09,13,6.80
2013,03,16,09,14,6.80
2013,03,16,09,15,6.80
2013,03,16,09,16,6.80
2013,03,16,09,17,6.80
2013,03,16,09,18,6.80
2013,03,16,09,19,6.80
2013,03,16,09,20,6.80
2013,03,16,09,21,6.80
2013,03,16,09,22,6.80
2013,03,16,09,23,6.80
2013,03,16,09,24,6.80
2013,03,16,09,25,6.80
2013,03,16,09,26,6.80
2013,03,16,09,27,6.80
2013,03,16,09,28,6.80
2013,03,16,09,29,6.80
2013,03,16,09,30,6.80
2013,03,16,09,31,6.70
2013,03,16,09,32,6.70
2013,03,16,09,33,6.70
2013,03,16,09,34,6.70
2013,03,16,09,35,6.70
2013,03,16,09,36,6.70
2013,03,16,09,37,6.70
2013,03,16,09,38,6.70
2013,03,16,09,39,6.70
2013,03,16,09,40,6.70
2013,03,16,09,41,6.70
2013,03,16,09,42,6.70
2013,03,16,09,43,6.70
2013,03,16,09,44,6.70
2013,03,16,09,45,6.70
2013,03,16,09,46,6.80
2013,03,16,09,47,6.80
2013,03,16,09,48,6.80
2013,03,16,09,49,6.80
2013,03,16,09,50,6.80
2013,03,16,09,51,6.80
2013,03,16,09,52,6.80
2013,03,16,09,53,6.80
2013,03,16,09,54,6.80
2013,03,16,09,55,6.80
2013,03,16,09,56,6.80
2013,03,16,09,57,6.80
2013,03,16,09,58,6.80
2013,03,16,09,59,6.80
2013,03,16,10,00,6.80
2013,03,16,10,01,6.80
2013,03,16,10,02,6.80
2013,03,16,10,03,6.80
2013,03,16,10,04,6.80
2013,03,16,10,05,6.80
2013,03,16,10,06,6.80
2013,03,16,10,07,6.80
2013,03,16,10,08,6.70
2013,03,16,10,09,6.70
2013,03,16,10,10,6.80
2013,03,16,10,11,6.80
2013,03,16,10,12,6.80
2013,03,16,10,13,6.80
2013,03,16,10,14,6.80
2013,03,16,10,15,6.80
2013,03,16,10,16,6.80
2013,03,16,10,17,6.80
2013,03,16,10,18,6.80
2013,03,16,10,19,6.80
2013,03,16,10,20,6.80
2013,03,16,10,21,6.80
2013,03,16,10,22,6.80
2013,03,16,10,23,6.90
2013,03,16,10,24,6.90
2013,03,16,10,25,6.90
2013,03,16,10,26,6.90
2013,03,16,10,27,6.90
2013,03,16,10,28,6.90
2013,03,16,10,29,6.80
2013,03,16,10,30,6.80
2013,03,16,10,31,6.80
2013,03,16,10,32,6.80
2013,03,16,10,33,6.90
2013,03,16,10,34,6.90
2013,03,16,10,35,6.90
2013,03,16,10,36,6.90
2013,03,16,10,37,6.90
2013,03,16,10,38,6.90
2013,03,16,10,39,6.90
2013,03,16,10,40,6.90
2013,03,16,10,41,6.90
2013,03,16,10,42,6.90
2013,03,16,10,43,6.90
2013,03,16,10,44,6.90
2013,03,16,10,45,6.90
2013,03,16,10,46,6.90
2013,03,16,10,47,6.90
2013,03,16,10,48,6.90
2013,03,16,10,49,6.90
2013,03,16,10,50,6.90
2013,03,16,10,51,7.00
2013,03,16,10,52,7.00
2013,03,16,10,53,7.00
2013,03,16,10,54,7.00
2013,03,16,10,55,7.00
2013,03,16,10,56,7.00
2013,03,16,10,57,7.10
2013,03,16,10,58,7.10
2013,03,16,10,59,7.10
2013,03,16,11,00,7.10
2013,03,16,11,01,7.10
2013,03,16,11,02,7.10
2013,03,16,11,03,7.10
2013,03,16,11,04,7.20
2013,03,16,11,05,7.20
2013,03,16,11,06,7.20
2013,03,16,11,07,7.20
2013,03,16,11,08,7.20
2013,03,16,11,09,7.20
2013,03,16,11,10,7.20
2013,03,16,11,11,7.20
2013,03,16,11,12,7.20
2013,03,16,11,13,7.20
2013,03,16,11,14,7.20
2013,03,16,11,15,7.20
2013,03,16,11,16,7.20
2013,03,16,11,17,7.20
2013,03,16,11,18,7.20
2013,03,16,11,19,7.20
2013,03,16,11,20,7.30
2013,03,16,11,21,7.30
2013,03,16,11,22,7.30
2013,03,16,11,23,7.30
2013,03,16,11,24,7.40
2013,03,16,11,25,7.40
2013,03,16,11,26,7.40
2013,03,16,11,27,7.40
2013,03,16,11,28,7.40
2013,03,16,11,29,7.40
2013,03,16,11,30,7.40
2013,03,16,11,31,7.40
2013,03,16,11,32,7.30
2013,03,16,11,33,7.30
2013,03,16,11,34,7.30
2013,03,16,11,35,7.40
2013,03,16,11,36,7.40
2013,03,16,11,37,7.40
2013,03,16,11,38,7.40
2013,03,16,11,39,7.50
2013,03,16,11,40,7.50
2013,03,16,11,41,7.50
2013,03,16,11,42,7.50
2013,03,16,11,43,7.60
2013,03,16,11,44,7.60
2013,03,16,11,45,7.60
2013,03,16,11,46,7.60
2013,03,16,11,47,7.50
2013,03,16,11,48,7.50
2013,03,16,11,49,7.50
2013,03,16,11,50,7.50
2013,03,16,11,51,7.60
2013,03,16,11,52,7.70
2013,03,16,11,53,7.70
2013,03,16,11,54,7.80
2013,03,16,11,55,7.90
2013,03,16,11,56,7.90
2013,03,16,11,57,8.00
2013,03,16,11,58,8.10
2013,03,16,11,59,8.10
2013,03,16,12,00,8.00
2013,03,16,12,01,7.90
2013,03,16,12,02,7.90
2013,03,16,12,03,7.90
2013,03,16,12,04,7.90
2013,03,16,12,05,7.80
2013,03,16,12,06,7.80
2013,03,16,12,07,7.70
2013,03,16,12,08,7.50
2013,03,16,12,09,7.40
2013,03,16,12,10,7.20
2013,03,16,12,11,7.10
2013,03,16,12,12,7.00
2013,03,16,12,13,7.00
2013,03,16,12,14,7.00
2013,03,16,12,15,7.00
2013,03,16,12,16,7.00
2013,03,16,12,17,7.00
2013,03,16,12,18,6.90
2013,03,16,12,19,6.90
2013,03,16,12,20,6.90
2013,03,16,12,21,6.90
2013,03,16,12,22,7.00
2013,03,16,12,23,7.10
2013,03,16,12,24,7.20
2013,03,16,12,25,7.20
2013,03,16,12,26,7.30
2013,03,16,12,27,7.40
2013,03,16,12,28,7.50
2013,03,16,12,29,7.60
2013,03,16,12,30,7.70
2013,03,16,12,31,7.70
2013,03,16,12,32,7.80
2013,03,16,12,33,7.80
2013,03,16,12,34,7.80
2013,03,16,12,35,7.90
2013,03,16,12,36,7.90
2013,03,16,12,37,7.90
2013,03,16,12,38,7.90
2013,03,16,12,39,7.90
2013,03,16,12,40,7.80
2013,03,16,12,41,7.70
2013,03,16,12,42,7.70
2013,03,16,12,43,7.60
2013,03,16,12,44,7.60
2013,03,16,12,45,7.50
2013,03,16,12,46,7.40
2013,03,16,12,47,7.40
2013,03,16,12,48,7.40
2013,03,16,12,49,7.40
2013,03,16,12,50,7.40
2013,03,16,12,51,7.40
2013,03,16,12,52,7.40
2013,03,16,12,53,7.40
2013,03,16,12,54,7.40
2013,03,16,12,55,7.40
2013,03,16,12,56,7.40
2013,03,16,12,57,7.50
2013,03,16,12,58,7.50
2013,03,16,12,59,7.60
2013,03,16,13,00,7.60
2013,03,16,13,01,7.60
2013,03,16,13,02,7.70
2013,03,16,13,03,7.70
2013,03,16,13,04,7.70
2013,03,16,13,05,7.70
2013,03,16,13,06,7.80
2013,03,16,13,07,7.80
2013,03,16,13,08,7.90
2013,03,16,13,09,7.90
2013,03,16,13,10,8.00
2013,03,16,13,11,8.10
2013,03,16,13,12,8.10
2013,03,16,13,13,8.20
2013,03,16,13,14,8.20
2013,03,16,13,15,8.20
2013,03,16,13,16,8.20
2013,03,16,13,17,8.10
2013,03,16,13,18,8.10
2013,03,16,13,19,8.10
2013,03,16,13,20,7.90
2013,03,16,13,21,7.90
2013,03,16,13,22,7.70
2013,03,16,13,23,7.60
2013,03,16,13,24,7.60
2013,03,16,13,25,7.60
2013,03,16,13,26,7.50
2013,03,16,13,27,7.40
2013,03,16,13,28,7.30
2013,03,16,13,29,7.30
2013,03,16,13,30,7.30
2013,03,16,13,31,7.20
2013,03,16,13,32,7.20
2013,03,16,13,33,7.20
2013,03,16,13,34,7.30
2013,03,16,13,35,7.30
2013,03,16,13,36,7.30
2013,03,16,13,37,7.30
2013,03,16,13,38,7.20
2013,03,16,13,39,7.20
2013,03,16,13,40,7.20
2013,03,16,13,41,7.10
2013,03,16,13,42,7.10
2013,03,16,13,43,7.10
2013,03,16,13,44,7.20
2013,03,16,13,45,7.20
2013,03,16,13,46,7.20
2013,03,16,13,47,7.30
2013,03,16,13,48,7.40
2013,03,16,13,49,7.40
2013,03,16,13,50,7.50
2013,03,16,13,51,7.50
2013,03,16,13,52,7.60
2013,03,16,13,53,7.70
2013,03,16,13,54,7.70
2013,03,16,13,55,7.70
2013,03,16,13,56,7.70
2013,03,16,13,57,7.60
2013,03,16,13,58,7.50
2013,03,16,13,59,7.50
2013,03,16,14,00,7.50
2013,03,16,14,01,7.50
2013,03,16,14,02,7.50
2013,03,16,14,03,7.40
2013,03,16,14,04,7.40
2013,03,16,14,05,7.20
2013,03,16,14,06,7.20
2013,03,16,14,07,7.20
2013,03,16,14,08,7.20
2013,03,16,14,09,7.20
2013,03,16,14,10,7.20
2013,03,16,14,11,7.30
2013,03,16,14,12,7.30
2013,03,16,14,13,7.40
2013,03,16,14,14,7.40
2013,03,16,14,15,7.50
2013,03,16,14,16,7.50
2013,03,16,14,17,7.50
2013,03,16,14,18,7.60
2013,03,16,14,19,7.70
2013,03,16,14,20,7.70
2013,03,16,14,21,7.70
2013,03,16,14,22,7.70
2013,03,16,14,23,7.70
2013,03,16,14,24,7.70
2013,03,16,14,25,7.70
2013,03,16,14,26,7.80
2013,03,16,14,27,7.80
2013,03,16,14,28,7.80
2013,03,16,14,29,7.70
2013,03,16,14,30,7.70
2013,03,16,14,31,7.70
2013,03,16,14,32,7.80
2013,03,16,14,33,7.80
2013,03,16,14,34,7.80
2013,03,16,14,35,7.80
2013,03,16,14,36,7.60
2013,03,16,14,37,7.50
2013,03,16,14,38,7.50
2013,03,16,14,39,7.40
2013,03,16,14,40,7.40
2013,03,16,14,41,7.40
2013,03,16,14,42,7.40
2013,03,16,14,43,7.30
2013,03,16,14,44,7.20
2013,03,16,14,45,7.20
2013,03,16,14,46,7.20
2013,03,16,14,47,7.20
2013,03,16,14,48,7.20
2013,03,16,14,49,7.30
2013,03,16,14,50,7.30
2013,03,16,14,51,7.40
2013,03,16,14,52,7.40
2013,03,16,14,53,7.40
2013,03,16,14,54,7.40
2013,03,16,14,55,7.40
2013,03,16,14,56,7.30
2013,03,16,14,57,7.30
2013,03,16,14,58,7.30
2013,03,16,14,59,7.30
2013,03,16,15,00,7.30
2013,03,16,15,01,7.30
2013,03,16,15,02,7.30
2013,03,16,15,03,7.30
2013,03,16,15,04,7.30
2013,03,16,15,05,7.40
2013,03,16,15,06,7.50
2013,03,16,15,07,7.60
2013,03,16,15,08,7.60
2013,03,16,15,09,7.50
2013,03,16,15,10,7.50
2013,03,16,15,11,7.40
2013,03,16,15,12,7.30
2013,03,16,15,13,7.10
2013,03,16,15,14,7.10
2013,03,16,15,15,7.00
2013,03,16,15,16,6.90
2013,03,16,15,17,6.80
2013,03,16,15,18,6.70
2013,03,16,15,19,6.70
2013,03,16,15,20,6.70
2013,03,16,15,21,6.60
2013,03,16,15,22,6.70
2013,03,16,15,23,6.60
2013,03,16,15,24,6.60
2013,03,16,15,25,6.50
2013,03,16,15,26,6.40
2013,03,16,15,27,6.40
2013,03,16,15,28,6.30
2013,03,16,15,29,6.20
2013,03,16,15,30,6.20
2013,03,16,15,31,6.20
2013,03,16,15,32,6.30
2013,03,16,15,33,6.30
2013,03,16,15,34,6.30
2013,03,16,15,35,6.30
2013,03,16,15,36,6.20
2013,03,16,15,37,6.20
2013,03,16,15,38,6.10
2013,03,16,15,39,6.00
2013,03,16,15,40,5.90
2013,03,16,15,41,5.90
2013,03,16,15,42,5.90
2013,03,16,15,43,5.90
2013,03,16,15,44,6.00
2013,03,16,15,45,6.00
2013,03,16,15,46,6.10
2013,03,16,15,47,6.10
2013,03,16,15,48,6.10
2013,03,16,15,49,6.10
2013,03,16,15,50,6.10
2013,03,16,15,51,6.10
2013,03,16,15,52,6.10
2013,03,16,15,53,6.10
2013,03,16,15,54,6.10
2013,03,16,15,55,6.10
2013,03,16,15,56,6.10
2013,03,16,15,57,6.00
2013,03,16,15,58,6.00
2013,03,16,15,59,6.10
2013,03,16,16,00,6.10
2013,03,16,16,01,6.10
2013,03,16,16,02,6.10
2013,03,16,16,03,6.10
2013,03,16,16,04,6.00
2013,03,16,16,05,6.00
2013,03,16,16,06,6.00
2013,03,16,16,07,6.00
2013,03,16,16,08,6.00
2013,03,16,16,09,6.10
2013,03,16,16,10,6.10
2013,03,16,16,11,6.10
2013,03,16,16,12,6.10
2013,03,16,16,13,6.10
2013,03,16,16,14,6.20
2013,03,16,16,15,6.20
2013,03,16,16,16,6.10
2013,03,16,16,17,6.10
2013,03,16,16,18,6.00
2013,03,16,16,19,6.00
2013,03,16,16,20,6.00
2013,03,16,16,21,6.00
2013,03,16,16,22,6.00
2013,03,16,16,23,6.00
2013,03,16,16,24,5.90
2013,03,16,16,25,5.80
2013,03,16,16,26,5.80
2013,03,16,16,27,5.80
2013,03,16,16,28,5.70
2013,03,16,16,29,5.70
2013,03,16,16,30,5.60
2013,03,16,16,31,5.60
2013,03,16,16,32,5.60
2013,03,16,16,33,5.50
2013,03,16,16,34,5.50
2013,03,16,16,35,5.40
2013,03,16,16,36,5.40
2013,03,16,16,37,5.30
2013,03,16,16,38,5.30
2013,03,16,16,39,5.20
2013,03,16,16,40,5.20
2013,03,16,16,41,5.10
2013,03,16,16,42,5.10
2013,03,16,16,43,5.10
2013,03,16,16,44,5.10
2013,03,16,16,45,5.00
2013,03,16,16,46,5.00
2013,03,16,16,47,4.90
2013,03,16,16,48,4.90
2013,03,16,16,49,4.90
2013,03,16,16,50,4.90
2013,03,16,16,51,4.80
2013,03,16,16,52,4.80
2013,03,16,16,53,4.80
2013,03,16,16,54,4.70
2013,03,16,16,55,4.70
2013,03,16,16,56,4.70
2013,03,16,16,57,4.70
2013,03,16,16,58,4.70
2013,03,16,16,59,4.70
2013,03,16,17,00,4.70
2013,03,16,17,01,4.70
2013,03,16,17,02,4.70
2013,03,16,17,03,4.70
2013,03,16,17,04,4.70
2013,03,16,17,05,4.70
2013,03,16,17,06,4.70
2013,03,16,17,07,4.70
2013,03,16,17,08,4.70
2013,03,16,17,09,4.70
2013,03,16,17,10,4.70
2013,03,16,17,11,4.70
2013,03,16,17,12,4.70
2013,03,16,17,13,4.70
2013,03,16,17,14,4.70
2013,03,16,17,15,4.70
2013,03,16,17,16,4.70
2013,03,16,17,17,4.70
2013,03,16,17,18,4.70
2013,03,16,17,19,4.70
2013,03,16,17,20,4.70
2013,03,16,17,21,4.70
2013,03,16,17,22,4.70
2013,03,16,17,23,4.70
2013,03,16,17,24,4.70
2013,03,16,17,25,4.70
2013,03,16,17,26,4.70
2013,03,16,17,27,4.70
2013,03,16,17,28,4.70
2013,03,16,17,29,4.70
2013,03,16,17,30,4.70
2013,03,16,17,31,4.70
2013,03,16,17,32,4.70
2013,03,16,17,33,4.70
2013,03,16,17,34,4.70
2013,03,16,17,35,4.70
2013,03,16,17,36,4.70
2013,03,16,17,37,4.70
2013,03,16,17,38,4.70
2013,03,16,17,39,4.70
2013,03,16,17,40,4.70
2013,03,16,17,41,4.70
2013,03,16,17,42,4.60
2013,03,16,17,43,4.60
2013,03,16,17,44,4.60
2013,03,16,17,45,4.60
2013,03,16,17,46,4.60
2013,03,16,17,47,4.60
2013,03,16,17,48,4.60
2013,03,16,17,49,4.60
2013,03,16,17,50,4.60
2013,03,16,17,51,4.60
2013,03,16,17,52,4.60
2013,03,16,17,53,4.60
2013,03,16,17,54,4.60
2013,03,16,17,55,4.60
2013,03,16,17,56,4.50
2013,03,16,17,57,4.50
2013,03,16,17,58,4.50
2013,03,16,17,59,4.50
2013,03,16,18,00,4.50
2013,03,16,18,01,4.50
2013,03,16,18,02,4.50
2013,03,16,18,03,4.40
2013,03,16,18,04,4.40
2013,03,16,18,05,4.40
2013,03,16,18,06,4.40